Location: Prague
(50.0830°N, 14.4670°E)
Time: 01:56:17
(UTC+01:00)

XW-2F - Pass Details

Date: 28 November 2021
Orbit: 495 x 515 km, 97.5° (Epoch: 16 January)

Event Time Altitude Azimuth Distance (km) Brightness Sun altitude
Rises 17:25:09 0° 171° (S) 2,591 ? -12.4°
Reaches altitude 10° 17:27:14 10° 174° (S) 1,715 ? -12.7°
Maximum altitude 17:30:54 68° 258° (WSW) 553 ? -13.3°
Drops below altitude 10° 17:34:39 10° 342° (NNW) 1,744 ? -13.9°
Sets 17:36:47 0° 345° (NNW) 2,639 ? -14.2°
